Weather History for Siemreap, Cambodia

Change the Weather History Date:

Thursday, December 13, 2012

  Actual Average Record
Temperature  
Mean Temperature 81 °F -  
Max Temperature 89 °F - - ()
Min Temperature 73 °F - - ()
Cooling Degree Days 16    
Growing Degree Days 31 (Base 50)    
Moisture  
Dew Point 70 °F    
Average Humidity 67    
Maximum Humidity 94    
Minimum Humidity 46    
Precipitation  
Precipitation 0.00 in - - ()
Sea Level Pressure  
Sea Level Pressure 29.86 in    
Wind  
Wind Speed 3 mph ()    
Max Wind Speed 9 mph    
Max Gust Speed -    
Visibility 5.9 miles    
Events      
T = Trace of Precipitation, MM = Missing Value Source: Averaged Metar Reports

Daily Weather History Graph

Daily Weather History Graph

Search for Another Location

Airport:

Trip Planner

Search our weather history database for the weather conditions in past years. The results will help you decide how hot, cold, wet, or windy it might be!

Date:

Astronomy

Dec. 13, 2012 Rise Set
Actual Time 6:18 AM ICT 5:39 PM ICT
Civil Twilight 5:55 AM ICT 6:02 PM ICT
Nautical Twilight 5:28 AM ICT 6:29 PM ICT
Astronomical Twilight 5:02 AM ICT 6:55 PM ICT
Moon 5:56 AM ICT (12/13) 5:42 PM ICT (12/13)
Length of Visible Light 12h 07m
Length of Day
11h 21m
Waning Crescent, 0% of the Moon is Illuminated
Dec 13
Waning Crescent
Dec 13
New
Dec 20
First Quarter
Dec 28
Full
Jan 5
Last Quarter

Hourly Weather History & Observations

Time (ICT) Temp. Heat Index Dew Point Humidity Pressure Visibility Wind Dir Wind Speed Gust Speed Precip Events Conditions
7:00 AM 73.4 °F - 68.0 °F 83% 29.86 in 5.6 mi Variable 2.3 mph - N/A   Partly Cloudy
7:30 AM 75.2 °F - 68.0 °F 78% 29.86 in 5.6 mi Variable 2.3 mph - N/A   Partly Cloudy
8:00 AM 77.0 °F - 68.0 °F 74% 29.89 in 5.6 mi ESE 5.8 mph - N/A   Partly Cloudy
8:30 AM 78.8 °F - 68.0 °F 69% 29.89 in 5.6 mi ESE 5.8 mph - N/A   Partly Cloudy
9:00 AM 80.6 °F 83.2 °F 68.0 °F 65% 29.92 in 5.6 mi ESE 8.1 mph - N/A   Partly Cloudy
9:30 AM 82.4 °F 85.4 °F 68.0 °F 62% 29.92 in 5.6 mi East 9.2 mph - N/A   Partly Cloudy
10:00 AM 82.4 °F 85.4 °F 68.0 °F 62% 29.92 in 6.2 mi ESE 8.1 mph - N/A   Partly Cloudy
10:30 AM 84.2 °F 87.3 °F 68.0 °F 58% 29.92 in 6.2 mi East 5.8 mph - N/A   Partly Cloudy
11:00 AM 86.0 °F 88.2 °F 66.2 °F 51% 29.89 in 6.2 mi ENE 6.9 mph - N/A   Partly Cloudy
11:30 AM 87.8 °F 90.4 °F 66.2 °F 49% 29.89 in 6.2 mi Variable 2.3 mph - N/A   Partly Cloudy
12:00 PM 87.8 °F 90.4 °F 66.2 °F 49% 29.89 in 6.2 mi Variable 2.3 mph - N/A   Partly Cloudy
12:30 PM 89.6 °F 92.2 °F 66.2 °F 46% 29.86 in 6.2 mi Variable 2.3 mph - N/A   Partly Cloudy
1:00 PM 87.8 °F 90.4 °F 66.2 °F 49% 29.86 in 6.2 mi North 4.6 mph - N/A   Scattered Clouds
1:30 PM 89.6 °F 92.2 °F 66.2 °F 46% 29.83 in 6.2 mi Variable 1.2 mph - N/A   Scattered Clouds
2:00 PM 87.8 °F 91.4 °F 68.0 °F 52% 29.83 in 6.2 mi Variable 3.5 mph - N/A   Scattered Clouds
2:30 PM 89.6 °F 94.7 °F 69.8 °F 52% 29.80 in 6.2 mi Variable 2.3 mph - N/A   Scattered Clouds
3:00 PM 87.8 °F 90.4 °F 66.2 °F 49% 29.80 in 6.2 mi Variable 2.3 mph - N/A   Scattered Clouds
3:30 PM 89.6 °F 92.2 °F 66.2 °F 46% 29.80 in 6.2 mi Variable 1.2 mph - N/A   Scattered Clouds
4:00 PM 89.6 °F 92.2 °F 66.2 °F 46% 29.80 in 6.2 mi Calm Calm - N/A   Scattered Clouds
4:30 PM 89.6 °F 92.2 °F 66.2 °F 46% 29.80 in 6.2 mi Calm Calm - N/A   Scattered Clouds
5:00 PM 86.0 °F 91.8 °F 71.6 °F 62% 29.80 in 6.2 mi SSW 2.3 mph - N/A   Scattered Clouds
5:30 PM 84.2 °F 89.6 °F 71.6 °F 66% 29.83 in 6.2 mi Calm Calm - N/A   Scattered Clouds
6:00 PM 82.4 °F 87.2 °F 71.6 °F 70% 29.83 in 5.6 mi Calm Calm - N/A   Partly Cloudy
6:30 PM 82.4 °F 88.2 °F 73.4 °F 74% 29.83 in 5.6 mi Calm Calm - N/A   Partly Cloudy
7:00 PM 80.6 °F 86.2 °F 75.2 °F 84% 29.83 in 5.6 mi Calm Calm - N/A   Partly Cloudy
7:30 PM 80.6 °F 86.2 °F 75.2 °F 84% 29.86 in 5.6 mi Calm Calm - N/A   Partly Cloudy
8:00 PM 78.8 °F - 73.4 °F 83% 29.86 in 5.6 mi Calm Calm - N/A   Partly Cloudy
8:30 PM 78.8 °F - 73.4 °F 83% 29.89 in 5.6 mi Calm Calm - N/A   Partly Cloudy
9:00 PM 78.8 °F - 75.2 °F 89% 29.89 in 5.6 mi Calm Calm - N/A   Partly Cloudy
9:30 PM 78.8 °F - 75.2 °F 89% 29.89 in 5.6 mi Calm Calm - N/A   Partly Cloudy
10:00 PM 78.8 °F - 73.4 °F 83% 29.89 in 5.6 mi Calm Calm - N/A   Partly Cloudy
10:30 PM 78.8 °F - 73.4 °F 83% 29.89 in 5.6 mi Calm Calm - N/A   Partly Cloudy
11:00 PM 78.8 °F - 75.2 °F 89% 29.89 in 5.6 mi Calm Calm - N/A   Partly Cloudy
11:30 PM 77.0 °F - 75.2 °F 94% 29.89 in 5.6 mi Calm Calm - N/A   Partly Cloudy